QPF
0.00 0.00 0.00 0.00 0.00 0.00 0.00 0.00 0.00 0.00 0.00 0.00 0.00 0.00 0.00 0.00 0.00 0.00 0.01 0.00 0.03 0.02 0.01 0.01 0.01 0.10 0.16 0.10 0.04 0.00 0.00 0.00 0.00 0.00 0.00 0.00 0.00 0.00 0.00 0.00 0.00 0.00 0.00
0.00 0.00 0.00 0.00 0.00 0.00 0.00 0.00 0.00 0.00 0.00 0.00 0.00 0.00 0.00 0.00 0.00 0.01 0.10 0.06 0.00 0.00 0.00 0.02 0.02 0.06 0.11 0.09 0.01 0.00 0.00 0.00 0.00 0.00 0.00 0.00 0.00 0.00 0.00 0.00 0.00 0.00 0.00
0.00 0.00 0.00 0.00 0.00 0.00 0.00 0.00 0.00 0.00 0.00 0.00 0.00 0.00 0.00 0.00 0.00 0.07 0.19 0.09 0.00 0.00 0.00 0.00 0.05 0.09 0.05 0.03 0.00 0.00 0.00 0.00 0.00 0.00 0.00 0.00 0.00 0.00 0.00 0.00 0.00 0.00 0.00
0.00 0.00 0.00 0.00 0.00 0.00 0.00 0.00 0.00 0.00 0.00 0.00 0.00 0.00 0.00 0.00 0.00 0.05 0.16 0.16 0.01 0.00 0.01 0.02 0.06 0.03 0.02 0.00 0.00 0.00 0.00 0.00 0.00 0.00 0.00 0.00 0.00 0.00 0.00 0.00 0.00 0.00 0.00
0.00 0.00 0.00 0.00 0.00 0.00 0.00 0.00 0.00 0.00 0.00 0.00 0.00 0.00 0.00 0.00 0.01 0.01 0.03 0.10 0.01 0.00 0.02 0.03 0.01 0.00 0.00 0.00 0.00 0.00 0.00 0.00 0.00 0.00 0.00 0.00 0.00 0.00 0.00 0.00 0.00 0.00 0.00
0.00 0.00 0.00 0.00 0.00 0.00 0.00 0.00 0.00 0.00 0.00 0.00 0.00 0.00 0.00 0.00 0.00 0.10 0.10 0.01 0.00 0.01 0.01 0.00 0.00 0.00 0.00 0.00 0.00 0.00 0.00 0.00 0.00 0.00 0.00 0.00 0.00 0.00 0.00 0.00 0.00 0.01 0.00
0.00 0.00 0.00 0.00 0.00 0.00 0.00 0.00 0.00 0.00 0.00 0.00 0.00 0.00 0.01 0.01 0.06 0.23 0.12 0.00 0.01 0.01 0.00 0.00 0.00 0.00 0.00 0.00 0.00 0.00 0.00 0.00 0.00 0.00 0.00 0.00 0.00 0.00 0.00 0.00 0.01 0.01 0.00
0.00 0.00 0.00 0.00 0.00 0.00 0.00 0.00 0.00 0.00 0.00 0.00 0.00 0.01 0.02 0.03 0.16 0.14 0.05 0.02 0.01 0.00 0.00 0.00 0.00 0.00 0.00 0.00 0.00 0.00 0.00 0.00 0.00 0.00 0.00 0.00 0.00 0.00 0.00 0.00 0.00 0.00 0.00
0.00 0.00 0.00 0.00 0.00 0.00 0.00 0.00 0.00 0.00 0.00 0.00 0.01 0.01 0.04 0.04 0.02 0.03 0.00 0.00 0.00 0.00 0.00 0.00 0.00 0.00 0.00 0.00 0.00 0.00 0.00 0.00 0.00 0.00 0.00 0.00 0.00 0.00 0.00 0.00 0.00 0.00 0.00
0.00 0.00 0.00 0.00 0.00 0.00 0.00 0.00 0.00 0.00 0.00 0.00 0.00 0.03 0.07 0.02 0.00 0.00 0.00 0.00 0.00 0.00 0.00 0.00 0.00 0.00 0.00 0.00 0.00 0.00 0.00 0.00 0.00 0.00 0.00 0.00 0.00 0.00 0.00 0.00 0.00 0.00 0.00
0.00 0.00 0.00 0.00 0.00 0.00 0.00 0.00 0.00 0.00 0.00 0.00 0.00 0.01 0.01 0.00 0.00 0.00 0.00 0.00 0.00 0.00 0.00 0.00 0.00 0.00 0.00 0.00 0.00 0.00 0.00 0.00 0.00 0.00 0.00 0.00 0.00 0.00 0.00 0.00 0.00 0.00 0.00
0.00 0.00 0.00 0.00 0.00 0.00 0.00 0.00 0.00 0.00 0.00 0.00 0.01 0.03 0.01 0.00 0.00 0.00 0.00 0.00 0.00 0.00 0.00 0.00 0.00 0.00 0.00 0.00 0.00 0.00 0.00 0.00 0.00 0.00 0.00 0.00 0.00 0.00 0.00 0.00 0.00 0.00 0.00
0.00 0.00 0.00 0.00 0.00 0.00 0.00 0.00 0.00 0.00 0.00 0.02 0.03 0.00 0.00 0.00 0.00 0.00 0.00 0.00 0.00 0.00 0.00 0.00 0.00 0.00 0.00 0.00 0.00 0.00 0.00 0.00 0.00 0.00 0.00 0.00 0.00 0.00 0.00 0.00 0.00 0.00 0.00
0.00 0.00 0.00 0.00 0.00 0.00 0.00 0.00 0.00 0.00 0.00 0.03 0.02 0.00 0.00 0.00 0.00 0.00 0.00 0.00 0.00 0.00 0.00 0.00 0.00 0.00 0.00 0.00 0.00 0.00 0.00 0.00 0.00 0.00 0.00 0.00 0.00 0.00 0.00 0.00 0.00 0.00 0.00
0.00 0.00 0.00 0.00 0.00 0.00 0.00 0.00 0.00 0.00 0.01 0.00 0.00 0.00 0.00 0.00 0.00 0.00 0.00 0.00 0.00 0.00 0.00 0.00 0.00 0.00 0.00 0.00 0.00 0.00 0.00 0.00 0.00 0.00 0.00 0.00 0.00 0.00 0.00 0.00 0.00 0.00 0.00
0.00 0.00 0.00 0.00 0.00 0.00 0.00 0.00 0.00 0.00 0.00 0.00 0.00 0.00 0.00 0.00 0.00 0.00 0.00 0.00 0.00 0.00 0.00 0.00 0.00 0.00 0.00 0.00 0.00 0.00 0.00 0.00 0.00 0.00 0.00 0.00 0.00 0.00 0.00 0.00 0.00 0.00 0.00
0.00 0.00 0.00 0.00 0.00 0.00 0.00 0.00 0.00 0.00 0.00 0.00 0.00 0.00 0.00 0.00 0.00 0.00 0.00 0.00 0.00 0.00 0.00 0.00 0.00 0.00 0.00 0.00 0.00 0.00 0.00 0.00 0.00 0.00 0.00 0.00 0.00 0.00 0.00 0.00 0.00 0.00 0.00
0.00 0.00 0.00 0.00 0.00 0.00 0.00 0.00 0.00 0.00 0.00 0.00 0.00 0.00 0.00 0.00 0.00 0.00 0.00 0.00 0.00 0.00 0.00 0.00 0.00 0.00 0.00 0.00 0.00 0.00 0.00 0.00 0.00 0.00 0.00 0.00 0.00 0.00 0.00 0.00 0.00 0.00 0.00
0.00 0.00 0.00 0.00 0.00 0.00 0.00 0.00 0.00 0.00 0.00 0.00 0.00 0.00 0.00 0.00 0.00 0.00 0.00 0.00 0.00 0.00 0.00 0.00 0.00 0.00 0.00 0.00 0.00 0.00 0.00 0.00 0.00 0.00 0.00 0.00 0.00 0.00 0.00 0.00 0.00 0.00 0.00
0.00 0.00 0.00 0.00 0.00 0.00 0.00 0.00 0.00 0.00 0.00 0.00 0.00 0.00 0.00 0.00 0.00 0.00 0.00 0.00 0.00 0.00 0.00 0.00 0.00 0.00 0.00 0.00 0.00 0.00 0.00 0.00 0.00 0.00 0.00 0.00 0.00 0.00 0.00 0.00 0.00 0.00 0.00
0.00 0.00 0.00 0.00 0.00 0.00 0.00 0.00 0.00 0.00 0.00 0.00 0.00 0.00 0.00 0.00 0.00 0.00 0.00 0.00 0.00 0.00 0.00 0.00 0.00 0.00 0.00 0.00 0.00 0.00 0.00 0.00 0.00 0.00 0.00 0.00 0.00 0.00 0.00 0.00 0.00 0.00 0.00
0.00 0.00 0.00 0.00 0.00 0.00 0.00 0.00 0.00 0.00 0.00 0.00 0.00 0.00 0.00 0.00 0.00 0.00 0.00 0.00 0.00 0.00 0.00 0.00 0.00 0.00 0.00 0.00 0.00 0.00 0.00 0.00 0.00 0.00 0.00 0.00 0.00 0.00 0.00 0.00 0.00 0.00 0.00
0.00 0.00 0.00 0.00 0.00 0.00 0.00 0.00 0.00 0.00 0.00 0.00 0.00 0.00 0.00 0.00 0.00 0.00 0.00 0.00 0.00 0.00 0.00 0.00 0.00 0.00 0.00 0.00 0.00 0.00 0.00 0.00 0.00 0.00 0.00 0.00 0.00 0.00 0.00 0.00 0.00 0.00 0.00
0.00 0.00 0.00 0.00 0.00 0.00 0.00 0.00 0.00 0.00 0.00 0.00 0.00 0.00 0.00 0.00 0.00 0.00 0.00 0.00 0.00 0.00 0.00 0.00 0.00 0.00 0.00 0.00 0.00 0.00 0.00 0.00 0.00 0.00 0.00 0.00 0.00 0.00 0.00 0.00 0.00 0.00 0.00
0.00 0.00 0.00 0.00 0.00 0.00 0.00 0.00 0.00 0.00 0.00 0.00 0.00 0.00 0.00 0.00 0.00 0.00 0.00 0.00 0.00 0.00 0.00 0.00 0.00 0.00 0.00 0.00 0.00 0.00 0.00 0.00 0.00 0.00 0.00 0.00 0.00 0.00 0.00 0.00 0.00 0.00 0.00
0.00 0.00 0.00 0.00 0.00 0.00 0.00 0.00 0.00 0.00 0.00 0.00 0.00 0.00 0.00 0.00 0.00 0.00 0.00 0.00 0.00 0.00 0.00 0.00 0.00 0.00 0.00 0.00 0.00 0.00 0.00 0.00 0.00 0.00 0.00 0.00 0.00 0.00 0.00 0.00 0.00 0.00 0.00
MSLP
1007.13 1007.54 1008.19 1008.86 1009.55 1010.09 1010.26 1010.34 1010.40 1010.53 1010.77 1010.94 1011.27 1011.49 1011.52 1011.50 1011.44 1011.99 1012.25 1012.62 1014.45 1014.52 1014.50 1013.95 1013.94 1014.05 1014.44 1014.41 1014.23 1013.68 1013.43 1013.60 1013.47 1013.02 1012.94 1012.66 1012.90 1012.54 1012.53 1012.31 1012.05 1011.38 1010.68
1005.94 1006.61 1007.20 1007.93 1008.47 1008.92 1009.27 1009.49 1009.78 1009.99 1010.16 1010.43 1010.81 1011.10 1011.10 1010.74 1010.57 1012.01 1013.02 1013.96 1014.35 1014.50 1013.37 1013.24 1013.54 1013.66 1014.11 1014.15 1013.58 1013.36 1013.50 1013.77 1013.91 1013.39 1013.16 1013.17 1012.71 1012.66 1012.38 1012.25 1011.61 1011.07 1011.02
1005.00 1005.88 1006.48 1007.04 1007.73 1008.19 1008.46 1008.71 1008.89 1009.23 1009.62 1009.94 1010.20 1010.34 1010.29 1010.16 1010.14 1011.86 1012.70 1012.12 1014.08 1014.32 1012.91 1012.79 1013.23 1013.78 1013.94 1014.11 1013.94 1013.77 1013.64 1013.97 1014.13 1013.72 1013.34 1012.92 1012.84 1012.60 1012.65 1012.15 1011.85 1011.71 1010.94
1004.12 1005.01 1005.73 1006.31 1006.82 1007.25 1007.66 1007.99 1008.33 1008.70 1008.96 1009.16 1009.44 1009.66 1009.82 1010.00 1010.14 1011.23 1012.46 1012.64 1013.08 1012.84 1012.67 1013.08 1013.50 1013.69 1014.02 1013.93 1013.87 1014.32 1014.90 1014.82 1014.34 1014.06 1013.68 1013.31 1013.13 1013.37 1013.20 1012.74 1012.15 1011.52 1011.25
1003.32 1004.18 1004.74 1005.41 1006.00 1006.49 1006.85 1007.34 1007.74 1008.04 1008.32 1008.69 1009.04 1009.23 1009.71 1009.99 1010.43 1010.91 1012.00 1012.95 1012.24 1012.54 1013.31 1013.72 1014.32 1014.73 1014.70 1015.21 1014.98 1015.58 1015.61 1015.34 1015.17 1014.94 1014.54 1014.32 1014.22 1014.31 1013.98 1013.80 1012.78 1011.91 1011.09
1002.59 1003.32 1004.16 1004.91 1005.38 1005.82 1006.24 1006.68 1007.12 1007.54 1008.01 1008.39 1008.72 1008.84 1009.33 1009.93 1010.48 1011.04 1011.77 1012.02 1012.25 1013.20 1013.80 1014.17 1014.67 1015.14 1015.77 1016.08 1016.24 1016.09 1016.31 1016.47 1016.38 1016.16 1015.48 1015.51 1015.49 1015.31 1015.03 1014.48 1013.20 1012.44 1011.61
1002.18 1002.95 1003.72 1004.34 1004.90 1005.40 1005.88 1006.29 1006.71 1007.19 1007.53 1008.09 1008.55 1008.92 1009.41 1010.11 1010.72 1011.44 1012.12 1012.44 1012.95 1013.44 1013.66 1014.19 1014.24 1015.38 1015.66 1015.75 1016.02 1016.24 1016.43 1016.59 1016.82 1017.03 1016.58 1016.30 1016.28 1016.35 1015.98 1014.76 1013.72 1013.07 1012.40
1001.91 1002.52 1003.21 1003.88 1004.49 1005.06 1005.59 1006.01 1006.41 1006.96 1007.42 1008.04 1008.56 1009.06 1009.55 1010.72 1011.32 1012.00 1012.55 1012.69 1013.20 1013.51 1013.94 1014.50 1015.23 1016.16 1016.60 1016.24 1016.35 1016.38 1016.42 1016.57 1016.78 1016.80 1016.86 1016.88 1016.77 1016.90 1016.36 1015.18 1014.54 1013.89 1012.70
1001.36 1002.10 1002.76 1003.50 1004.19 1004.85 1005.46 1005.95 1006.36 1006.88 1007.56 1008.11 1008.53 1009.19 1010.25 1011.47 1012.03 1012.43 1012.82 1012.85 1013.60 1014.23 1014.78 1015.34 1016.00 1016.64 1016.98 1017.10 1016.87 1016.82 1016.76 1016.68 1016.90 1016.93 1016.82 1016.91 1017.02 1017.23 1016.81 1015.63 1014.84 1014.02 1013.42
1000.78 1001.68 1002.50 1003.28 1003.90 1004.60 1005.33 1005.92 1006.50 1007.23 1007.99 1008.34 1009.19 1010.14 1011.00 1011.80 1012.29 1012.52 1012.62 1013.46 1014.09 1014.69 1015.71 1016.41 1016.74 1017.28 1017.65 1017.80 1017.57 1017.35 1017.08 1017.12 1016.75 1016.32 1016.11 1016.54 1016.66 1017.07 1016.74 1016.36 1015.90 1015.09 1014.77
1000.51 1001.41 1002.39 1003.28 1003.84 1004.43 1005.37 1006.28 1007.08 1007.81 1008.47 1009.00 1009.93 1010.55 1011.44 1012.15 1012.87 1013.05 1012.88 1013.08 1013.95 1014.67 1015.44 1016.26 1017.54 1017.96 1018.20 1018.34 1018.25 1017.90 1017.70 1017.62 1016.92 1016.48 1015.71 1015.73 1015.82 1015.94 1016.46 1016.60 1016.56 1016.17 1016.12
1000.48 1001.55 1002.66 1003.43 1003.87 1004.78 1005.79 1006.84 1007.75 1008.44 1008.96 1009.59 1010.28 1010.93 1011.80 1012.65 1013.36 1013.52 1013.43 1013.67 1014.38 1014.77 1015.33 1016.56 1018.12 1018.47 1018.64 1018.50 1018.23 1018.14 1017.80 1017.41 1016.39 1015.69 1015.74 1015.81 1015.86 1015.96 1015.80 1016.61 1016.96 1016.72 1016.84
1000.92 1001.94 1002.88 1003.53 1004.57 1005.50 1006.46 1007.47 1008.30 1008.99 1009.38 1009.98 1010.27 1011.08 1012.15 1013.20 1013.72 1014.19 1014.42 1014.68 1015.00 1015.21 1016.04 1017.31 1018.22 1018.67 1018.71 1018.46 1018.22 1017.80 1017.44 1016.55 1016.12 1015.78 1015.92 1016.06 1016.10 1016.14 1015.51 1016.51 1016.82 1016.70 1017.12
1001.12 1002.01 1003.01 1004.06 1005.34 1006.38 1007.20 1008.10 1008.66 1009.20 1009.70 1010.16 1010.16 1011.04 1011.85 1012.97 1014.00 1014.70 1015.29 1015.63 1015.96 1016.59 1017.30 1018.06 1018.40 1018.36 1018.37 1018.10 1018.14 1017.56 1017.34 1017.10 1016.66 1016.29 1016.08 1016.19 1016.22 1016.20 1016.12 1016.03 1016.14 1016.10 1016.42
1001.61 1002.61 1003.60 1004.89 1005.88 1006.82 1007.94 1008.33 1008.81 1009.48 1009.69 1009.68 1009.87 1010.53 1011.63 1012.73 1013.72 1014.44 1015.05 1015.52 1016.00 1016.68 1017.15 1017.79 1017.70 1017.28 1017.28 1017.32 1017.54 1017.55 1017.41 1017.04 1016.71 1016.59 1016.37 1016.37 1016.38 1016.41 1016.51 1016.60 1016.52 1016.55 1016.52
1002.07 1003.05 1003.96 1005.20 1006.51 1007.23 1008.10 1009.45 1010.16 1010.31 1010.04 1009.64 1010.00 1010.53 1011.63 1012.61 1013.93 1014.80 1015.38 1015.72 1016.28 1016.74 1016.46 1016.34 1016.56 1016.80 1016.90 1017.09 1017.11 1017.28 1017.40 1017.45 1017.16 1016.92 1016.74 1016.66 1016.70 1016.72 1016.75 1016.93 1017.11 1017.21 1017.22
1001.52 1002.48 1003.68 1004.70 1005.94 1006.82 1007.57 1008.41 1009.68 1011.05 1010.76 1011.14 1011.31 1011.80 1012.74 1013.73 1014.62 1015.34 1015.86 1016.26 1016.66 1016.82 1016.22 1016.14 1016.42 1016.67 1016.92 1017.06 1017.14 1017.28 1017.65 1017.87 1017.60 1017.28 1017.06 1016.94 1016.88 1016.87 1016.99 1017.16 1017.44 1017.67 1017.90
1001.57 1002.56 1003.27 1004.28 1005.32 1006.18 1006.83 1007.47 1008.42 1009.39 1010.59 1012.19 1012.99 1013.22 1013.70 1014.42 1015.24 1015.79 1016.29 1016.74 1016.89 1016.60 1015.88 1016.12 1016.48 1016.73 1017.04 1017.23 1017.30 1017.47 1017.59 1017.75 1017.65 1017.47 1017.44 1017.30 1017.37 1017.46 1017.54 1017.51 1017.76 1018.00 1018.27
1001.54 1002.01 1002.71 1003.47 1004.54 1005.44 1005.93 1006.66 1007.52 1008.60 1009.86 1011.78 1013.35 1014.39 1014.81 1015.18 1015.71 1016.12 1016.16 1015.32 1015.20 1015.28 1015.62 1016.12 1016.56 1016.86 1017.20 1017.64 1018.01 1018.20 1018.21 1018.22 1017.96 1017.72 1017.79 1017.66 1017.61 1017.54 1017.84 1018.22 1018.54 1018.52 1018.57
1000.88 1001.22 1001.87 1002.59 1003.81 1004.54 1005.00 1005.72 1006.74 1008.01 1009.59 1010.97 1012.06 1013.40 1014.64 1015.33 1015.82 1016.02 1015.76 1015.24 1014.70 1014.97 1015.51 1016.08 1016.72 1017.07 1017.48 1017.96 1018.21 1018.43 1018.68 1018.49 1018.12 1017.99 1018.05 1018.05 1017.97 1017.84 1017.98 1018.12 1018.24 1018.47 1018.72
1000.90 1001.70 1002.04 1002.86 1003.22 1003.63 1004.22 1005.04 1006.20 1007.32 1008.74 1009.76 1010.83 1012.32 1013.42 1013.58 1014.20 1014.52 1014.46 1014.34 1014.54 1014.98 1015.56 1016.00 1016.56 1017.13 1017.70 1018.07 1018.17 1018.15 1018.13 1018.26 1018.14 1018.10 1018.20 1018.44 1018.34 1018.36 1018.44 1018.54 1018.60 1018.72 1018.92
1001.10 1001.66 1002.04 1002.22 1002.55 1003.28 1003.91 1004.82 1005.80 1006.80 1007.76 1008.74 1010.09 1012.11 1013.09 1012.63 1013.04 1013.47 1013.56 1014.08 1014.50 1015.10 1015.57 1016.18 1016.42 1017.04 1017.19 1017.63 1017.98 1017.85 1018.02 1018.22 1018.36 1018.20 1018.35 1018.56 1018.68 1018.66 1018.70 1018.80 1018.82 1018.96 1019.16
1001.07 1001.44 1001.46 1001.78 1002.44 1003.24 1004.04 1004.82 1005.70 1006.50 1007.28 1008.39 1009.64 1011.60 1012.43 1011.94 1012.15 1012.61 1013.09 1013.78 1014.52 1015.15 1015.79 1016.24 1016.49 1016.70 1017.20 1017.72 1017.87 1017.94 1017.81 1018.28 1018.50 1018.46 1018.40 1018.52 1018.77 1018.86 1018.94 1019.07 1019.24 1019.60 1020.05
1000.76 1000.91 1001.00 1001.57 1002.36 1003.22 1003.78 1004.48 1005.27 1006.21 1007.16 1007.96 1009.20 1010.73 1011.32 1011.21 1011.31 1012.20 1012.79 1013.62 1014.57 1015.06 1015.68 1016.05 1016.36 1016.76 1017.47 1017.74 1018.00 1017.98 1018.22 1018.77 1018.91 1018.89 1018.68 1018.61 1019.14 1019.19 1019.18 1019.42 1019.86 1020.28 1020.60
1000.47 1000.72 1000.83 1001.53 1002.30 1002.85 1003.53 1004.20 1004.80 1005.76 1006.60 1007.58 1008.79 1009.97 1010.43 1010.48 1010.92 1011.79 1012.67 1013.65 1014.39 1014.95 1015.50 1015.88 1016.21 1016.90 1017.45 1017.69 1017.88 1018.25 1019.39 1019.78 1019.30 1019.61 1018.82 1019.08 1019.24 1019.50 1019.71 1019.98 1020.19 1020.46 1020.72
1000.34 1000.67 1000.87 1001.44 1002.34 1002.76 1003.26 1003.99 1004.62 1005.48 1006.25 1007.15 1008.19 1009.14 1009.61 1009.90 1010.54 1011.40 1012.36 1013.38 1014.08 1014.67 1015.26 1015.74 1016.14 1016.80 1017.27 1017.58 1018.04 1019.61 1020.00 1020.44 1020.27 1020.29 1019.75 1019.36 1019.65 1019.78 1020.02 1020.29 1020.46 1020.72 1020.85
Thickness
5858 5858 5854 5850 5847 5843 5842 5841 5840 5839 5836 5832 5828 5824 5820 5816 5813 5799 5794 5776 5764 5759 5758 5758 5751 5746 5733 5726 5721 5718 5708 5694 5679 5679 5673 5669 5658 5654 5646 5640 5635 5634 5630
5868 5864 5860 5857 5855 5850 5848 5847 5846 5841 5840 5835 5829 5823 5819 5819 5816 5795 5772 5750 5754 5755 5764 5759 5749 5742 5732 5725 5720 5711 5700 5687 5673 5664 5661 5654 5652 5647 5642 5634 5631 5625 5616
5874 5868 5865 5863 5858 5854 5853 5853 5851 5847 5842 5837 5831 5825 5823 5820 5816 5794 5776 5763 5753 5750 5765 5759 5746 5736 5727 5719 5712 5701 5692 5679 5668 5659 5653 5652 5646 5642 5633 5630 5621 5611 5604
5881 5875 5870 5867 5865 5862 5859 5857 5853 5849 5845 5841 5837 5832 5827 5821 5816 5797 5779 5764 5760 5763 5762 5753 5742 5733 5724 5717 5708 5692 5677 5666 5661 5653 5647 5643 5638 5630 5623 5618 5613 5609 5596
5886 5881 5878 5876 5872 5868 5865 5861 5857 5854 5849 5844 5837 5833 5825 5819 5812 5803 5787 5763 5758 5766 5754 5744 5732 5721 5713 5700 5693 5677 5666 5659 5651 5643 5637 5630 5625 5616 5611 5605 5604 5604 5597
5891 5886 5884 5879 5875 5871 5867 5863 5859 5854 5848 5844 5837 5833 5824 5816 5807 5796 5788 5780 5773 5757 5745 5738 5727 5715 5700 5689 5678 5669 5658 5647 5638 5632 5630 5619 5613 5607 5601 5597 5599 5591 5589
5893 5890 5886 5882 5876 5873 5868 5864 5859 5853 5850 5841 5835 5828 5818 5809 5797 5787 5777 5773 5762 5753 5745 5733 5727 5711 5702 5692 5678 5666 5655 5645 5635 5626 5621 5616 5608 5600 5596 5595 5595 5588 5587
5893 5892 5889 5884 5878 5873 5868 5864 5859 5853 5846 5837 5830 5822 5813 5798 5788 5781 5772 5769 5757 5749 5739 5727 5715 5701 5689 5685 5675 5665 5656 5646 5637 5631 5622 5613 5607 5597 5593 5593 5587 5581 5586
5894 5892 5889 5885 5878 5872 5865 5861 5857 5850 5840 5832 5827 5815 5801 5789 5781 5774 5768 5763 5749 5738 5728 5718 5708 5694 5682 5674 5669 5659 5651 5643 5635 5629 5624 5615 5607 5597 5592 5592 5592 5591 5584
5898 5894 5890 5885 5878 5870 5865 5859 5853 5843 5832 5828 5814 5803 5791 5784 5775 5771 5767 5754 5741 5731 5718 5706 5695 5686 5675 5666 5661 5653 5647 5638 5635 5633 5630 5619 5612 5600 5595 5589 5586 5585 5580
5901 5896 5888 5881 5876 5871 5862 5853 5843 5833 5824 5815 5801 5796 5787 5778 5768 5762 5761 5754 5740 5728 5716 5703 5687 5676 5668 5659 5652 5649 5642 5634 5634 5631 5632 5625 5617 5610 5598 5590 5583 5580 5573
5898 5889 5881 5876 5874 5864 5852 5842 5832 5822 5812 5803 5795 5788 5780 5771 5761 5754 5751 5746 5734 5724 5714 5698 5678 5668 5661 5656 5651 5643 5638 5633 5639 5638 5630 5622 5616 5610 5606 5592 5583 5578 5569
5887 5880 5874 5872 5862 5852 5841 5830 5820 5811 5803 5794 5791 5781 5770 5761 5755 5744 5738 5732 5723 5719 5706 5687 5673 5663 5657 5654 5649 5645 5641 5644 5640 5636 5627 5619 5614 5609 5610 5597 5587 5582 5572
5879 5874 5868 5859 5847 5839 5832 5822 5813 5804 5796 5790 5788 5778 5770 5758 5747 5740 5730 5722 5713 5702 5688 5677 5669 5664 5657 5653 5647 5647 5643 5639 5635 5631 5626 5619 5613 5608 5604 5601 5594 5590 5581
5868 5862 5855 5845 5836 5828 5817 5814 5808 5800 5797 5792 5789 5781 5768 5755 5747 5739 5730 5721 5711 5698 5688 5677 5671 5669 5663 5657 5650 5644 5640 5638 5633 5628 5623 5616 5609 5604 5599 5595 5592 5587 5582
5854 5849 5844 5834 5823 5818 5811 5798 5787 5785 5785 5788 5786 5782 5770 5756 5740 5730 5720 5713 5703 5693 5690 5685 5677 5669 5662 5656 5650 5644 5638 5632 5629 5624 5619 5613 5605 5599 5595 5592 5587 5582 5578
5852 5847 5840 5832 5822 5813 5808 5801 5791 5778 5774 5769 5767 5764 5755 5742 5730 5721 5713 5704 5695 5687 5690 5683 5674 5666 5660 5654 5649 5643 5633 5627 5625 5621 5616 5610 5603 5598 5593 5589 5585 5580 5574
5846 5836 5835 5827 5819 5812 5808 5803 5797 5788 5777 5764 5750 5749 5739 5731 5721 5713 5704 5695 5689 5685 5689 5679 5670 5663 5657 5651 5646 5640 5634 5628 5623 5619 5613 5607 5599 5592 5588 5587 5583 5579 5574
5837 5836 5834 5829 5821 5813 5810 5804 5798 5788 5777 5759 5745 5734 5726 5719 5711 5704 5700 5704 5699 5693 5685 5675 5667 5661 5654 5646 5639 5633 5628 5623 5620 5617 5610 5605 5598 5594 5587 5582 5577 5575 5574
5837 5834 5833 5829 5819 5813 5810 5804 5795 5784 5769 5758 5749 5737 5725 5716 5708 5703 5700 5700 5699 5691 5681 5671 5663 5657 5650 5642 5636 5631 5623 5620 5619 5615 5610 5604 5598 5594 5589 5585 5583 5579 5576
5829 5824 5822 5818 5815 5813 5809 5802 5793 5783 5770 5762 5753 5739 5727 5724 5715 5708 5705 5701 5695 5686 5676 5670 5662 5654 5646 5640 5636 5632 5627 5621 5619 5615 5610 5602 5598 5592 5589 5585 5583 5581 5578
5820 5817 5816 5815 5815 5809 5804 5798 5790 5781 5773 5765 5754 5734 5721 5726 5718 5711 5707 5699 5692 5683 5674 5665 5660 5652 5648 5642 5636 5633 5627 5621 5615 5614 5609 5603 5598 5594 5591 5586 5585 5582 5580
5813 5811 5812 5812 5808 5800 5795 5791 5783 5776 5770 5761 5750 5731 5722 5725 5720 5713 5706 5698 5688 5678 5668 5661 5657 5652 5646 5639 5635 5631 5628 5621 5614 5610 5609 5605 5599 5596 5593 5588 5585 5580 5576
5808 5808 5808 5804 5799 5793 5790 5784 5779 5769 5763 5757 5745 5731 5725 5724 5721 5711 5704 5695 5683 5675 5666 5660 5654 5649 5641 5636 5631 5628 5623 5616 5611 5606 5606 5605 5598 5595 5594 5590 5584 5579 5575
5801 5799 5800 5796 5791 5787 5783 5778 5774 5766 5759 5752 5741 5729 5726 5725 5719 5709 5700 5690 5680 5672 5665 5658 5652 5644 5638 5634 5630 5625 5617 5611 5608 5604 5604 5600 5597 5594 5590 5587 5583 5579 5576
5791 5790 5791 5788 5782 5780 5777 5770 5766 5759 5753 5746 5738 5729 5725 5721 5716 5707 5697 5686 5677 5670 5662 5656 5650 5642 5636 5632 5627 5616 5610 5603 5600 5599 5598 5596 5593 5591 5588 5584 5582 5578 5575